Delta Virtual Airport Information Service

Savannah Hilton Head International Airport

ICAO: KSAV Country: United States
Latitude: 32.1276 Longitude: -81.2021
Latest Arrival : DAL1013 (A) (KATL-KSAV) Latest Departure : DAL1013 (C) (KSAV-KATL)


WX CaptureLIVE
Data provided by noaa.gov | Fetched at 03:19:58

METAR : KSAV 300753Z AUTO 18005KT 10SM CLR 19/14 A3004 RMK AO2 SLP172 T01890144

TAF : KSAV 300753Z AUTO 18005KT 10SM CLR 19/14 A3004 RMK AO2 SLP172 T01890144


Runway Data for KSAV
Data provided by openaviationdata.com

Runway ID Mag Var Hdg Length Elevation Surface ILS Freq ILS Id ILS Slope
9 -6 96° 9341 ft 50 ft Concrete 109.9 ISAV 3
18 -6 185° 7017 ft 50 ft Asphalt -- -- --
27 -6 276° 9341 ft 50 ft Concrete -- -- --
36 -6 7017 ft 50 ft Asphalt 111.9 ITPV 3

Savannah Hilton Head International Airport, United States
Use only for reference purposes



Not for navigational purposes.